Flag for Germany Weather past 2 weeks in Hameln, Lower Saxony, Germany

Now
43 °F

Quite cool.


Feels Like: 34 °F
Forecast: 35 / 44 °F
Wind: 20 mph from West

Location: Bueckeburg

Current Time: Dec 20, 2014 at 4:26:54 AM

Latest Report: Dec 20, 2014 at 3:20 AM


Visibility: N/A

Pressure: 29.98 "Hg

Humidity: 81%

Dew point: 37 °F

Location of HamelnLocation

Historic Weather in Hameln — Graph

°F

Hameln temperature yesterday

Maximum temperature yesterday: 54 °F (at 12:20 AM)
Minimum temperature yesterday: 43 °F (at 9:20 PM)
Average temperature yesterday: 49 °F

Past Weeks' High & Low Weather Summary

 TemperatureHumidityPressure
High54 °F (Dec 18, 2:20 PM)94% (Dec 18, 12:20 AM)30.36 "Hg (Dec 18, 12:20 AM)
Low34 °F (Dec 14, 9:20 PM)61% (Dec 10, 5:20 AM)29.30 "Hg (Dec 12, 3:20 PM)
Average41 °F85%29.89 "Hg
* Reported Dec 5 2:20 AM — Dec 20 2:20 AM, Hameln, Weather by CustomWeather, © 2014

Note: Actual official high and low records may vary slightly from our data, if they occured in-between our weather recording intervals... More about our weather records

Advertising

Hameln weather history for previous 24 hours

 ConditionsComfort  
Time TempWeatherWind HumidityBarometerVisibility
2:20 AM
Dec 20
43 °FQuite cool.20 mph76%29.98 "HgN/A
1:20 AM43 °FQuite cool.20 mph81%29.98 "HgN/A
12:20 AM41 °FQuite cool.14 mph87%29.98 "Hg5 mi
11:20 PM
Dec 19
43 °FQuite cool.18 mph81%29.95 "HgN/A
10:20 PM43 °FQuite cool.20 mph81%29.95 "HgN/A
9:20 PM43 °FQuite cool.17 mph76%29.92 "HgN/A
8:20 PM45 °FQuite cool.18 mph71%29.92 "HgN/A
7:20 PM45 °FQuite cool.17 mph71%29.89 "HgN/A
6:20 PM45 °FQuite cool.16 mph76%29.86 "HgN/A
5:20 PM45 °FQuite cool.12 mph76%29.83 "HgN/A
4:20 PM45 °FQuite cool.17 mph76%29.83 "HgN/A
3:20 PM46 °FCool.17 mph82%29.80 "HgN/A
2:20 PM48 °FCool.13 mph82%29.77 "HgN/A
1:20 PM48 °FCool.17 mph94%29.74 "Hg3 mi
12:20 PM48 °FCool.14 mph94%29.74 "Hg2 mi
11:58 AM50 °FRain. Fog.22 mph88%29.71 "Hg2 mi
11:20 AM52 °FDrizzle. Partly sunny.20 mph88%29.68 "HgN/A
10:20 AM52 °FDrizzle. Partly sunny.21 mph88%29.68 "HgN/A
9:20 AM52 °FDrizzle. Broken clouds.22 mph94%29.68 "Hg5 mi
8:20 AM52 °FPartly cloudy.20 mph94%29.68 "Hg5 mi
7:20 AM52 °FDrizzle. Fog.20 mph94%29.71 "Hg2 mi
6:48 AM52 °FDrizzle. Fog.20 mph94%29.71 "Hg2 mi
6:20 AM52 °FDrizzle. Fog.18 mph94%29.71 "Hg3 mi
5:20 AM54 °FCool.17 mph88%29.74 "Hg4 mi
4:20 AM54 °FCool.17 mph88%29.74 "Hg4 mi
Weather by CustomWeather, © 2014

See weather overviewHow to use our weather pages